[[{"header":{"parameterUnit":"m.s-1","parameterCategory":1,"la1":30.2991,"la2":30.254,"lo1":-89.0895,"lo2":-89.0444,"dy":0.0017,"dx":0.0017,"nx":28,"ny":28,"refTime":"2025-11-11T09:00:00:Z","depth":0,"parameterNumber":2,"parameterNumberName":"U-component_of_WINDS"},"data":[0,0,0,0,0,0,0,0,0,0,0,0,0,0,0,0,0,0,0,0,0,0,0,0,0,0,0,0,0,0,0,0,0,0,0,0,0,0,0,0,0,0,0,0,0,0,0,0,0,0,0,0,0,0,0,0,0,0,0.4335,0.4334,0,0.4314,0.4314,0.4313,0.43,0.43,0.43,0.43,0.4278,0.4277,0.4277,0,0,0,0,0,0,0,0,0,0,0,0,0,0.4362,0.4361,0.4335,0.4334,0.4334,0.4314,0.4313,0.4313,0.43,0.43,0.43,0.43,0.4278,0.4277,0.4277,0,0,0,0,0,0,0,0,0,0,0,0,0,0.4346,0.4361,0.4335,0.4325,0.4324,0.4314,0.4313,0.4313,0.43,0.43,0.43,0.43,0.4278,0.4278,0.4277,0.4274,0,0,0.4274,0.4274,0,0,0,0,0,0,0,0,0.4347,0.4345,0.4327,0.4326,0.4325,0.4309,0.4315,0.43,0.43,0.4309,0.43,0.43,0.4288,0.4287,0.4283,0.4273,0.4272,0.4274,0.4274,0.4274,0.4273,0,0,0,0,0,0,0,0.4348,0.4346,0.4326,0.4327,0.4325,0.4321,0.4319,0.4312,0.43,0.4308,0.4307,0.4305,0.4288,0.4284,0.4283,0.4272,0.4274,0.4274,0.4273,0.4273,0.4257,0.4257,0,0,0,0,0,0,0.4351,0.4347,0.4327,0.4326,0.4336,0.4321,0.4318,0.4314,0.43,0.4297,0.4305,0.4305,0.4285,0.4283,0.4282,0.4277,0.4274,0.4273,0.4272,0.4257,0.4257,0.4257,0,0,0,0,0,0,0.4352,0.4349,0.4328,0.4336,0.4333,0.4321,0.4316,0.4314,0.431,0.4297,0.4295,0.4304,0.4285,0.4283,0.4276,0.4276,0.4273,0.4272,0.4257,0.4257,0.4257,0.4268,0,0,0,0,0,0,0.4352,0.435,0.4349,0.4336,0.4333,0.4323,0.4316,0.4314,0.4309,0.4308,0.4295,0.4293,0.4285,0.4277,0.4275,0.4275,0.4271,0.4257,0.4257,0.4257,0.4267,0.4268,0.4269,0,0,0,0,0,0.4353,0.4353,0.4349,0.4347,0.4332,0.4323,0.4321,0.4312,0.4309,0.4308,0.4299,0.4293,0.4276,0.4277,0.4274,0.4274,0.4257,0.4257,0.4257,0.4267,0.4268,0.4269,0,0,0,0,0,0,0.4366,0.4351,0.4347,0.4342,0.4334,0.4321,0.4319,0.4313,0.4306,0.4305,0.4294,0.4291,0.4285,0.4279,0.4279,0.427,0.4266,0.4266,0.4274,0.4275,0.4276,0.4277,0.4271,0,0,0,0,0,0.4368,0.4363,0.435,0.4347,0.4343,0.4332,0.4328,0.4321,0.4312,0.4309,0.43,0.4291,0.4283,0.4279,0.4271,0.4266,0.4263,0.4264,0.4265,0.4266,0.4266,0.4261,0.4261,0.4258,0.4258,0.4258,0,0,0.4373,0.4364,0.4361,0.4349,0.4342,0.4336,0.4329,0.4323,0.4318,0.4308,0.4301,0.4294,0.4283,0.4277,0.4273,0.4271,0.4266,0.4266,0.4267,0.4266,0.4261,0.4262,0.4262,0.4258,0.4258,0.4258,0,0,0.4378,0.4371,0.4368,0.4361,0.435,0.4342,0.4341,0.4329,0.4324,0.4316,0.4307,0.4301,0.4289,0.4281,0.4276,0.4277,0.427,0.4275,0.4278,0.4274,0.4274,0.4275,0.4274,0.4274,0.4274,0.4274,0.4274,0,0.4385,0.4376,0.4367,0.4361,0.4355,0.4345,0.4341,0.4334,0.4322,0.4318,0.4315,0.4299,0.4291,0.4282,0.4282,0.4278,0.4276,0.4276,0.4275,0.4275,0.4275,0.4275,0.4274,0.4275,0.4275,0.4275,0.4275,0,0.4385,0.4379,0.4377,0.4365,0.4359,0.4354,0.4343,0.4338,0.4332,0.4324,0.4316,0.4306,0.4296,0.4293,0.4287,0.4283,0.4282,0.4277,0.4273,0.4276,0.4275,0.4275,0.4276,0.4275,0.4275,0.4275,0,0,0.4398,0.438,0.4379,0.4373,0.436,0.4354,0.4349,0.4338,0.4334,0.4325,0.4319,0.4309,0.4304,0.4298,0.4291,0.4287,0.4287,0.4283,0.4283,0.4284,0.4281,0.4283,0.4283,0.4283,0.4283,0.4283,0.4281,0,0.4401,0.439,0.438,0.4373,0.4366,0.4356,0.4351,0.4342,0.4334,0.4327,0.4318,0.431,0.4306,0.4301,0.4297,0.4288,0.4286,0.4288,0.4277,0.4276,0.4279,0.4283,0.4286,0.4285,0.4281,0.4281,0.4281,0,0.4403,0.4394,0.4386,0.4372,0.4369,0.4365,0.4354,0.4347,0.4336,0.4331,0.4323,0.4316,0.4308,0.4305,0.4293,0.4295,0.4289,0.4284,0.4283,0.4282,0.4279,0.4281,0.4285,0.4285,0.428,0.428,0.428,0,0.4412,0.4398,0.4391,0.4386,0.4371,0.4367,0.4361,0.435,0.4344,0.4334,0.433,0.432,0.4314,0.4306,0.4295,0.4294,0.4284,0.428,0.4279,0.4279,0.4277,0.4277,0.428,0.4275,0.4275,0.4275,0.4275,0,0.4416,0.4411,0.4395,0.4391,0.4385,0.4373,0.4367,0.436,0.435,0.4343,0.4333,0.4327,0.4314,0.4306,0.4297,0.4288,0.4286,0.4281,0.4278,0.4281,0.4282,0.4277,0.4277,0.4275,0.4275,0.4275,0.4275,0,0.4425,0.4414,0.4406,0.4391,0.4388,0.4384,0.4371,0.4366,0.4357,0.4349,0.4346,0.4333,0.4323,0.4311,0.4297,0.4291,0.4283,0.428,0.4287,0.4285,0.4284,0.4284,0.4284,0.4282,0.4278,0.4278,0.4279,0,0.4428,0.4424,0.4409,0.4404,0.4397,0.4389,0.4383,0.4371,0.4365,0.4351,0.4348,0.4337,0.4328,0.4312,0.43,0.4289,0.4285,0.4286,0.4284,0.4286,0.4284,0.4285,0.4284,0.4287,0.4287,0.4287,0.4287,0,0.4434,0.4428,0.442,0.4409,0.4402,0.4393,0.4384,0.438,0.4367,0.436,0.4349,0.4342,0.4328,0.4317,0.4304,0.4296,0.4289,0.4288,0.4286,0.4289,0.4293,0.429,0.4288,0.4288,0.4288,0.4287,0.4287,0.4287,0.4439,0.4435,0.4423,0.4414,0.4406,0.4397,0.4391,0.4382,0.4373,0.436,0.4354,0.4343,0.4331,0.4313,0.4305,0.4296,0.4294,0.4292,0.4292,0.4292,0.4292,0.4295,0.4294,0.4294,0.4294,0.4294,0.4294,0,0.4444,0.4436,0.4427,0.4414,0.4407,0.4401,0.439,0.4384,0.4374,0.4364,0.4355,0.4342,0.4331,0.4318,0.4306,0.4301,0.4297,0.4298,0.4298,0.4296,0.4295,0.4297,0.4302,0.4302,0.4302,0.4302,0.4302,0.4302,0.4445,0.4437,0.443,0.4417,0.4409,0.4399,0.4393,0.4384,0.4376,0.4362,0.4353,0.4345,0.4333,0.432,0.4309,0.4305,0.4301,0.4303,0.4298,0.4297,0.4297,0.4296,0.4298,0.4302,0.4302,0.43,0.43,0.43]},{"header":{"parameterUnit":"m.s-1","parameterCategory":1,"la1":30.2991,"la2":30.254,"lo1":-89.0895,"lo2":-89.0444,"dy":0.0017,"dx":0.0017,"nx":28,"ny":28,"refTime":"2025-11-11T09:00:00:Z","depth":0,"parameterNumber":3,"parameterNumberName":"V-component_of_WINDS"},"data":[0,0,0,0,0,0,0,0,0,0,0,0,0,0,0,0,0,0,0,0,0,0,0,0,0,0,0,0,0,0,0,0,0,0,0,0,0,0,0,0,0,0,0,0,0,0,0,0,0,0,0,0,0,0,0,0,0,0,3.1439,3.1439,0,3.142,3.142,3.142,3.1362,3.1361,3.136,3.1358,3.1339,3.1339,3.134,0,0,0,0,0,0,0,0,0,0,0,0,0,3.1425,3.1426,3.144,3.1439,3.1439,3.142,3.142,3.142,3.1362,3.1361,3.1359,3.1358,3.1338,3.1339,3.134,0,0,0,0,0,0,0,0,0,0,0,0,0,3.1421,3.1426,3.144,3.1408,3.1405,3.142,3.142,3.142,3.1363,3.1361,3.1359,3.1357,3.1338,3.1339,3.134,3.1385,0,0,3.1343,3.1344,0,0,0,0,0,0,0,0,3.1422,3.1422,3.1413,3.141,3.1407,3.1392,3.1408,3.1408,3.1363,3.1379,3.1358,3.1356,3.1358,3.1357,3.1358,3.1384,3.1383,3.1343,3.1344,3.1344,3.1345,0,0,0,0,0,0,0,3.1422,3.1422,3.1432,3.1413,3.1409,3.1395,3.1392,3.1408,3.1379,3.1377,3.1373,3.1372,3.1356,3.1357,3.1357,3.1382,3.1343,3.1344,3.1345,3.1345,3.1441,3.1443,0,0,0,0,0,0,3.1427,3.1423,3.1432,3.1431,3.141,3.1396,3.1393,3.1398,3.1379,3.1374,3.1373,3.1369,3.1356,3.1356,3.1356,3.1405,3.1344,3.1345,3.1346,3.144,3.1442,3.1444,0,0,0,0,0,0,3.1427,3.1428,3.1433,3.1426,3.1426,3.1399,3.1405,3.1399,3.14,3.1376,3.137,3.1379,3.1355,3.1355,3.1377,3.1403,3.1346,3.1347,3.1437,3.144,3.1443,3.1504,0,0,0,0,0,0,3.1427,3.1429,3.1445,3.1427,3.1426,3.1456,3.1406,3.14,3.1402,3.1396,3.138,3.1376,3.1353,3.1376,3.1378,3.1403,3.1347,3.1435,3.1439,3.1442,3.1499,3.1508,3.1516,0,0,0,0,0,3.1426,3.1464,3.1447,3.1448,3.1447,3.1457,3.1457,3.143,3.1404,3.1421,3.1405,3.1376,3.1401,3.1379,3.1381,3.1407,3.1433,3.1437,3.1442,3.1495,3.1507,3.1516,0,0,0,0,0,0,3.1486,3.1461,3.1441,3.1474,3.1468,3.1447,3.1467,3.1443,3.1444,3.1439,3.1405,3.1402,3.1429,3.142,3.1397,3.1448,3.1412,3.1417,3.1452,3.1462,3.1471,3.1471,3.1348,0,0,0,0,0,3.1503,3.1514,3.1491,3.1522,3.152,3.1495,3.1498,3.1478,3.147,3.1467,3.1453,3.1447,3.1453,3.1457,3.1462,3.1498,3.1493,3.1517,3.1526,3.1533,3.1537,3.1553,3.1563,3.1459,3.1458,3.1458,0,0,3.1539,3.1526,3.1535,3.1534,3.1527,3.1538,3.1493,3.1507,3.1515,3.147,3.1489,3.1479,3.147,3.1499,3.1511,3.1493,3.1565,3.1538,3.1544,3.1544,3.1559,3.1569,3.1578,3.1462,3.1461,3.1461,0,0,3.1608,3.1601,3.1624,3.1618,3.1608,3.159,3.1596,3.1579,3.157,3.159,3.1556,3.1565,3.1576,3.157,3.1569,3.1635,3.1608,3.1638,3.1681,3.1698,3.1706,3.1713,3.1734,3.1743,3.1642,3.1642,3.1642,0,3.1653,3.1669,3.164,3.1656,3.1656,3.1615,3.1638,3.1634,3.1626,3.1627,3.1606,3.1618,3.1609,3.1636,3.1652,3.1653,3.1657,3.1638,3.1707,3.1714,3.172,3.174,3.1749,3.1646,3.1645,3.1645,3.1645,0,3.1723,3.1735,3.1755,3.1748,3.175,3.177,3.1743,3.1749,3.1729,3.1713,3.1733,3.1721,3.1721,3.1726,3.1707,3.175,3.1738,3.1713,3.1676,3.1734,3.1752,3.176,3.1651,3.1649,3.1648,3.1648,0,0,3.183,3.1805,3.1813,3.1808,3.1794,3.1802,3.182,3.1819,3.1824,3.182,3.1833,3.1843,3.1819,3.1818,3.1797,3.1812,3.1863,3.1785,3.1784,3.1798,3.1907,3.1924,3.1934,3.1846,3.1847,3.1848,3.1907,0,3.1894,3.1922,3.1896,3.1929,3.1938,3.1899,3.1914,3.1907,3.1893,3.1898,3.1883,3.1889,3.1859,3.1857,3.187,3.1854,3.1884,3.185,3.1856,3.1856,3.1857,3.1944,3.1962,3.2018,3.1914,3.1915,3.1916,0,3.1972,3.197,3.2004,3.1986,3.1989,3.2003,3.1999,3.2006,3.1996,3.1985,3.1983,3.1957,3.1972,3.1938,3.1957,3.1934,3.1935,3.1928,3.1929,3.1927,3.1888,3.1942,3.2035,3.2043,3.1927,3.1927,3.1926,0,3.2043,3.205,3.207,3.2068,3.2048,3.2058,3.205,3.2039,3.204,3.2037,3.2037,3.2037,3.2036,3.2036,3.2011,3.1989,3.2033,3.1997,3.2023,3.2023,3.2032,3.2032,3.2125,3.2037,3.2037,3.2036,3.2036,0,3.2116,3.2137,3.2101,3.2114,3.2136,3.2107,3.213,3.2118,3.2108,3.2117,3.2084,3.2093,3.2061,3.2066,3.2047,3.2064,3.2065,3.2055,3.2049,3.2057,3.2058,3.2056,3.205,3.2039,3.2038,3.2038,3.2037,0,3.2199,3.2176,3.2195,3.2174,3.217,3.2187,3.2169,3.2179,3.2163,3.2174,3.2175,3.215,3.2154,3.213,3.213,3.2117,3.2143,3.2132,3.2146,3.2142,3.2168,3.2165,3.2262,3.2273,3.218,3.2181,3.2181,0,3.2246,3.2261,3.2242,3.2245,3.2239,3.2245,3.2246,3.2217,3.2219,3.2208,3.222,3.2221,3.2221,3.2229,3.2211,3.221,3.2197,3.2231,3.2197,3.2203,3.2195,3.2194,3.2194,3.2238,3.2239,3.224,3.2241,0,3.2331,3.2318,3.2321,3.2319,3.232,3.2317,3.2312,3.2317,3.2286,3.2289,3.2293,3.2293,3.2292,3.2294,3.229,3.2281,3.2255,3.2252,3.2257,3.2264,3.2271,3.2265,3.2163,3.2249,3.2249,3.2248,3.2247,3.2247,3.2395,3.2407,3.2394,3.2397,3.2391,3.2386,3.2394,3.2379,3.2381,3.2378,3.2362,3.2368,3.2357,3.2348,3.2342,3.2346,3.233,3.2338,3.234,3.2342,3.2346,3.2272,3.2346,3.2345,3.2345,3.2345,3.2345,0,3.2477,3.2467,3.247,3.2464,3.2466,3.2442,3.2435,3.2438,3.2444,3.2436,3.2436,3.244,3.2441,3.2422,3.242,3.2427,3.2415,3.2427,3.2426,3.2423,3.2362,3.2356,3.2437,3.2437,3.2437,3.2437,3.2437,3.2437,3.252,3.2536,3.2523,3.2535,3.2525,3.2531,3.2529,3.2524,3.2517,3.2523,3.2523,3.2511,3.2498,3.2495,3.2494,3.2489,3.2489,3.2505,3.2495,3.2437,3.2428,3.242,3.2414,3.2505,3.2506,3.2556,3.2556,3.2557]}]]